Location: Caserta
(41.0670°N, 14.3330°E)
Time: 04:17:19
(UTC+02:00)

STARLINK-1341 - Pass Details

Date: 10 October 2020
Orbit: 549 x 550 km, 53.0° (Epoch: 20 October)

Event Time Altitude Azimuth Distance (km) Brightness Sun altitude
Exits shadow 05:17:20 14° 343° (NNW) 1,561 5.8 -21.8°
Maximum altitude 05:19:01 18° 12° (NNE) 1,400 5.9 -21.5°
Drops below altitude 10° 05:21:52 10° 55° (NE) 1,824 7.2 -20.9°
Sets 05:24:43 0° 75° (ENE) 2,717 8.7 -20.4°
